sat.trackr.live / text

‹ back to catalog

AE2A

NORAD 64591 · 2025-135BR

PAYLOAD ACTIVE UNKNOWN

§ Identity

Operator
Country
JPN
Launch date
2025-06-23
Launch site
AFWTR
Launch vehicle
Mass (kg)
RCS (m²)

External: N2YO · Heavens-Above · Gunter

§ Orbital elements

Epoch: 2026-05-25T05:29:54.394656Z

Period
96.20 min
Inclination
97.7659°
Eccentricity
0.0006239
Mean motion
14.96878647 rev/d
Perigee alt
572.2 km
Apogee alt
580.9 km
Semi-major
6,954.7 km
B*
3.3743e-4
RAAN
260.6021°
Arg perigee
57.9120°
Mean anomaly
302.2706°
Rev number
5,052

§ Raw data

AE2A1 64591U 25135BR  26145.22910179  .00003814  00000+0  33743-3 0  99982 64591  97.7659 260.6021 0006239  57.9120 302.2706 14.96878647 50523

JSON: /api/v1/satellites/64591 · /tle

For live sub-satellite position, see the globe view (requires WebGL).

§ Visibility from observer

Set your observer location to see the next 7 days of passes ≥ 10°. The values pass through the URL so the page stays shareable.

No JS? Fill the form by hand. The geolocation button needs JavaScript.